This demonstration page uses our WeatherBlox Daily Observations layout. Learn more.

Left ArrowRight Arrow

41.55636, -103.73856

Hourly Observations for September 17, 2021

Temp ( °F °C ) Dew Point ( °F °C ) Humidity (%) Winds ( mph kmh ) Pressure ( in mb ) Visibility ( mi km ) Precip ( " mm )
12:58 am 00:58 Clear 51 10.5 35 1.4 54 54 NNE 14 22 30.06 1018 10 16 N/A
1:58 am 01:58 Partly Cloudy 48 8.7 34 1.1 59 59 NNE 15 24 30.10 1019 10 16 N/A
2:58 am 02:58 Cloudy 48 8.8 35 1.5 61 61 N 13 20 30.11 1020 10 16 N/A
3:58 am 03:58 Cloudy 47 8.3 35 1.5 63 63 N 9 15 30.16 1021 10 16 N/A
4:58 am 04:58 Clear 41 5.1 33 0.8 74 74 NNW 7 11 30.19 1023 10 16 N/A
5:58 am 05:58 Clear 40 4.7 34 0.9 77 77 NW 6 9 30.22 1024 10 16 N/A
6:58 am 06:58 Mostly Sunny 39 4 33 0.6 79 79 N N/A 30.24 1024 10 16 N/A
7:58 am 07:58 Sunny 44 6.5 35 1.6 71 71 N N/A 30.27 1025 10 16 N/A
8:58 am 08:58 Mostly Cloudy 49 9.2 33 0.8 56 56 E 6 9 30.27 1025 10 16 N/A
9:58 am 09:58 Sunny 51 10.6 33 0.6 50 50 S 6 9 30.29 1026 10 16 N/A
10:58 am 10:58 Sunny 57 13.9 28 -2.5 32 32 SSE 13 20 30.28 1026 10 16 N/A
11:58 am 11:58 Mostly Cloudy 59 15 30 -1.1 33 33 SSE 12 19 30.27 1025 10 16 N/A
12:58 pm 12:58 Partly Cloudy 64 17.5 32 undefined 31 31 S 16 26 30.25 1024 10 16 N/A
1:58 pm 13:58 Sunny 66 19 36 2 32 32 S 15 24 30.22 1023 10 16 N/A
2:58 pm 14:58 Sunny 68 20.1 35 1.9 30 30 S 15 24 30.18 1022 10 16 N/A
3:58 pm 15:58 Sunny 70 21.1 37 2.6 30 30 S 20 31 30.15 1021 10 16 N/A
4:58 pm 16:58 Sunny 69 20.3 39 3.7 34 34 S 18 30 30.16 1021 10 16 N/A
5:58 pm 17:58 Sunny 67 19.6 39 4.1 36 36 S 18 30 30.16 1021 10 16 N/A
6:58 pm 18:58 Sunny 64 17.6 42 5.4 45 45 S 14 22 30.16 1022 10 16 N/A
7:58 pm 19:58 Clear 62 16.7 44 6.4 51 51 S 16 26 30.14 1021 10 16 N/A
8:58 pm 20:58 Clear 62 16.7 44 6.5 51 51 SSW 31 50 30.11 1020 10 16 N/A
9:58 pm 21:58 Clear 62 16.4 43 6.3 51 51 SSW 31 50 30.11 1020 10 16 N/A
10:58 pm 22:58 Clear 60 15.7 44 6.5 55 55 SSW 24 39 30.10 1019 10 16 N/A
11:58 pm 23:58 Clear 59 14.9 45 7.2 60 60 SSW 32 52 30.09 1019 10 16 N/A

Powered by AerisWeather